When you browse on this site, cookies collect data to enhance your experience and personalize the content and advertising you see.
Visit our Privacy Policy to learn more. By continuing to use the site, you agree to this use of cookies and data.

Hourly Weather Dalat

Today, 13 July, Monday

Time Temperature Precipitation Wind Pressure Humidity
00:00 +17°C° 0.1 mm 0 mps 650 mmHg 94%
01:00 +19°C° 0 mm 1 mps 650 mmHg 93%
02:00 +17°C° 0 mm 0 mps 650 mmHg 93%
03:00 +16°C° 0 mm 0 mps 650 mmHg 93%
04:00 +16°C° 0 mm 0 mps 650 mmHg 93%
05:00 +17°C° 0 mm 0 mps 650 mmHg 91%
06:00 +18°C° 0 mm 0 mps 651 mmHg 89%
07:00 +19°C° 0 mm 0 mps 651 mmHg 85%
08:00 +22°C° 0 mm 0 mps 652 mmHg 75%
09:00 +26°C° 0 mm 1 mps 653 mmHg 64%
10:00 +28°C° 0 mm 1 mps 653 mmHg 54%
11:00 +28°C° 0.6 mm 1 mps 653 mmHg 61%
12:00 +27°C° 0.6 mm 1 mps 652 mmHg 69%
13:00 +27°C° 0 mm 1 mps 652 mmHg 75%
14:00 +26°C° 1.9 mm 1 mps 651 mmHg 79%
15:00 +26°C° 1.9 mm 1 mps 651 mmHg 83%
16:00 +25°C° 1.9 mm 1 mps 650 mmHg 87%
17:00 +24°C° 0.9 mm 1 mps 650 mmHg 90%
18:00 +20°C° 0.9 mm 0 mps 650 mmHg 94%
19:00 +19°C° 0.9 mm 0 mps 650 mmHg 97%
20:00 +19°C° 1.7 mm 0 mps 650 mmHg 97%
21:00 +18°C° 1.7 mm 0 mps 651 mmHg 97%
22:00 +18°C° 1.7 mm 0 mps 651 mmHg 98%
23:00 +18°C° 0.7 mm 0 mps 651 mmHg 97%

Tomorrow, 14 July, Tuesday

Time Temperature Precipitation Wind Pressure Humidity
00:00 +17°C° 0.7 mm 0 mps 650 mmHg 97%
01:00 +19°C° 0.7 mm 1 mps 650 mmHg 97%
02:00 +19°C° 0.3 mm 1 mps 650 mmHg 97%
03:00 +19°C° 0.3 mm 1 mps 650 mmHg 96%
04:00 +19°C° 0.3 mm 1 mps 650 mmHg 96%
05:00 +20°C° 0.1 mm 1 mps 650 mmHg 95%
06:00 +18°C° 0.1 mm 0 mps 651 mmHg 93%
07:00 +19°C° 0.1 mm 0 mps 651 mmHg 92%
08:00 +21°C° 0.8 mm 0 mps 652 mmHg 87%
09:00 +22°C° 0.8 mm 0 mps 652 mmHg 83%
10:00 +24°C° 0.8 mm 0 mps 653 mmHg 78%
11:00 +24°C° 1.8 mm 0 mps 652 mmHg 79%
12:00 +24°C° 1.8 mm 0 mps 652 mmHg 81%
13:00 +24°C° 1.8 mm 0 mps 651 mmHg 82%
14:00 +23°C° 2.1 mm 0 mps 651 mmHg 85%
15:00 +22°C° 2.1 mm 0 mps 650 mmHg 89%
16:00 +22°C° 2.1 mm 0 mps 650 mmHg 92%
17:00 +21°C° 1.6 mm 0 mps 650 mmHg 93%
18:00 +20°C° 1.6 mm 0 mps 650 mmHg 94%
19:00 +19°C° 1.6 mm 0 mps 650 mmHg 96%
20:00 +19°C° 2.2 mm 0 mps 650 mmHg 96%
21:00 +18°C° 2.2 mm 0 mps 651 mmHg 96%
22:00 +18°C° 2.2 mm 0 mps 651 mmHg 96%
23:00 +18°C° 0.9 mm 0 mps 651 mmHg 96%

Day after tomorrow, 15 July, Wednesday

Time Temperature Precipitation Wind Pressure Humidity
00:00 +18°C° 0.9 mm 0 mps 650 mmHg 96%
01:00 +17°C° 0.9 mm 0 mps 650 mmHg 96%
02:00 +17°C° 0.1 mm 0 mps 650 mmHg 95%
03:00 +17°C° 0.1 mm 0 mps 649 mmHg 95%
04:00 +19°C° 0.1 mm 1 mps 649 mmHg 94%
05:00 +18°C° 0 mm 0 mps 650 mmHg 93%
06:00 +18°C° 0 mm 0 mps 650 mmHg 91%
07:00 +19°C° 0 mm 0 mps 651 mmHg 90%
08:00 +23°C° 0 mm 1 mps 651 mmHg 79%
09:00 +26°C° 0 mm 1 mps 652 mmHg 69%
10:00 +28°C° 0 mm 1 mps 653 mmHg 59%
11:00 +27°C° 1.8 mm 1 mps 652 mmHg 67%
12:00 +26°C° 1.8 mm 1 mps 651 mmHg 76%
13:00 +26°C° 1.8 mm 1 mps 651 mmHg 85%
14:00 +25°C° 2.4 mm 1 mps 650 mmHg 87%
15:00 +24°C° 2.4 mm 1 mps 650 mmHg 89%
16:00 +24°C° 2.4 mm 1 mps 649 mmHg 91%
17:00 +21°C° 0.6 mm 0 mps 649 mmHg 93%
18:00 +20°C° 0.6 mm 0 mps 649 mmHg 95%
19:00 +19°C° 0.6 mm 0 mps 649 mmHg 98%
20:00 +19°C° 0 mm 0 mps 650 mmHg 98%
21:00 +18°C° 0 mm 0 mps 650 mmHg 98%
22:00 +18°C° 0 mm 0 mps 650 mmHg 98%
23:00 +18°C° 0 mm 0 mps 650 mmHg 98%

16 July, Thursday

Time Temperature Precipitation Wind Pressure Humidity
00:00 +18°C° 0 mm 0 mps 650 mmHg 98%
01:00 +18°C° 0 mm 0 mps 649 mmHg 97%
02:00 +17°C° 0 mm 0 mps 649 mmHg 97%
03:00 +17°C° 0 mm 0 mps 649 mmHg 97%
04:00 +17°C° 0 mm 0 mps 649 mmHg 97%
05:00 +18°C° 0 mm 0 mps 650 mmHg 96%
06:00 +19°C° 0 mm 0 mps 650 mmHg 95%
07:00 +19°C° 0 mm 0 mps 651 mmHg 93%
08:00 +21°C° 1.1 mm 0 mps 651 mmHg 88%
09:00 +22°C° 1.1 mm 0 mps 652 mmHg 83%
10:00 +26°C° 1.1 mm 1 mps 652 mmHg 77%
11:00 +26°C° 2.7 mm 1 mps 651 mmHg 80%
12:00 +26°C° 2.7 mm 1 mps 651 mmHg 82%
13:00 +25°C° 2.7 mm 1 mps 650 mmHg 84%
14:00 +25°C° 1.7 mm 1 mps 650 mmHg 86%
15:00 +24°C° 1.7 mm 1 mps 650 mmHg 87%
16:00 +24°C° 1.7 mm 1 mps 649 mmHg 89%
17:00 +23°C° 0.8 mm 1 mps 649 mmHg 92%
18:00 +20°C° 0.8 mm 0 mps 649 mmHg 94%
19:00 +19°C° 0.8 mm 0 mps 649 mmHg 97%
20:00 +18°C° 0.1 mm 0 mps 650 mmHg 97%
21:00 +18°C° 0.1 mm 0 mps 650 mmHg 97%
22:00 +17°C° 0.1 mm 0 mps 650 mmHg 97%
23:00 +17°C° 0 mm 0 mps 650 mmHg 97%

17 July, Friday

Time Temperature Precipitation Wind Pressure Humidity
00:00 +17°C° 0 mm 0 mps 650 mmHg 96%
01:00 +17°C° 0 mm 0 mps 650 mmHg 96%
02:00 +17°C° 0 mm 0 mps 649 mmHg 96%
03:00 +16°C° 0 mm 0 mps 649 mmHg 96%
04:00 +18°C° 0 mm 1 mps 649 mmHg 96%
05:00 +19°C° 0 mm 1 mps 650 mmHg 95%
06:00 +20°C° 0 mm 1 mps 650 mmHg 94%
07:00 +21°C° 0 mm 1 mps 651 mmHg 93%
08:00 +23°C° 0 mm 1 mps 652 mmHg 83%
09:00 +25°C° 0 mm 1 mps 652 mmHg 73%
10:00 +27°C° 0 mm 1 mps 653 mmHg 62%
11:00 +27°C° 1.1 mm 1 mps 652 mmHg 69%
12:00 +26°C° 1.1 mm 1 mps 652 mmHg 75%
13:00 +26°C° 1.1 mm 1 mps 651 mmHg 82%
14:00 +25°C° 1.5 mm 1 mps 651 mmHg 85%
15:00 +25°C° 1.5 mm 1 mps 650 mmHg 87%
16:00 +24°C° 1.5 mm 1 mps 650 mmHg 90%
17:00 +23°C° 1.4 mm 1 mps 650 mmHg 92%
18:00 +20°C° 1.4 mm 0 mps 650 mmHg 95%
19:00 +18°C° 1.4 mm 0 mps 650 mmHg 97%
20:00 +18°C° 1.1 mm 0 mps 650 mmHg 97%
21:00 +18°C° 1.1 mm 0 mps 651 mmHg 97%
22:00 +20°C° 1.1 mm 1 mps 651 mmHg 97%
23:00 +19°C° 0 mm 1 mps 651 mmHg 97%

18 July, Saturday

Time Temperature Precipitation Wind Pressure Humidity
00:00 +19°C° 0 mm 1 mps 651 mmHg 97%
01:00 +19°C° 0 mm 1 mps 650 mmHg 98%
02:00 +19°C° 0 mm 1 mps 650 mmHg 98%
03:00 +19°C° 0 mm 1 mps 650 mmHg 98%
04:00 +19°C° 0 mm 1 mps 650 mmHg 98%
05:00 +20°C° 0 mm 1 mps 650 mmHg 97%
06:00 +20°C° 0 mm 1 mps 651 mmHg 96%
07:00 +21°C° 0 mm 1 mps 651 mmHg 95%
08:00 +22°C° 0.1 mm 1 mps 652 mmHg 86%
09:00 +24°C° 0.1 mm 1 mps 652 mmHg 77%
10:00 +26°C° 0.1 mm 1 mps 653 mmHg 69%
11:00 +26°C° 1.1 mm 1 mps 653 mmHg 73%
12:00 +26°C° 1.1 mm 1 mps 652 mmHg 77%
13:00 +26°C° 1.1 mm 1 mps 651 mmHg 81%
14:00 +25°C° 1.7 mm 1 mps 651 mmHg 83%
15:00 +25°C° 1.7 mm 1 mps 651 mmHg 85%
16:00 +24°C° 1.7 mm 1 mps 650 mmHg 86%
17:00 +23°C° 0.7 mm 1 mps 650 mmHg 90%
18:00 +22°C° 0.7 mm 1 mps 650 mmHg 93%
19:00 +20°C° 0.7 mm 1 mps 650 mmHg 97%
20:00 +20°C° 0 mm 1 mps 650 mmHg 97%
21:00 +20°C° 0 mm 1 mps 650 mmHg 96%
22:00 +19°C° 0 mm 1 mps 650 mmHg 96%
23:00 +19°C° 0 mm 1 mps 650 mmHg 96%
Show more